UAL86 KEWR-ZSPD

Flight info

Callsign UAL86
Flight time N/A
Altitude 32000
Route PORTT4 ELIOT DCT SYR DCT ROSVO DCT YUY DCT RABAV DCT KIREM DCT EBLAL DCT UX DCT EMETO DCT RB DCT 77N100W 79N110W 80N120W 81N130W 81N140W 81N150W 81N160W/K0896F320 81N170W 80N180W 77N160E DCT TISRE N730 RODOK N622 UTS M172 BEDNA A906 MADAN B803 NALEB N620 BADOM M160 SIMLI/K0891S0975 A588 LEMOT W603 TOSID A588 CHI W107 SANKO A326 SURAK G455 MATNU MAT81A
Aircraft B772/H-SDE2E3FGHIJ5LORVWXY/LB1D1

Departure

Time 2026-05-04 05:10
Airport Newark Liberty International Airport (KEWR)

Arrival

Time N/A
Airport Shanghai Pudong International Airport (ZSPD)
Time Latitude Longitude Altitude Speed Heading
2026-05-04 04:49 40.69822 -74.17820 32 ft 0 kts 281°
2026-05-04 04:57 40.69820 -74.17808 32 ft 2 kts 281°
2026-05-04 04:58 40.69815 -74.17776 32 ft 3 kts 280°
2026-05-04 04:58 40.69816 -74.17744 32 ft 3 kts 255°
2026-05-04 04:58 40.69826 -74.17717 32 ft 3 kts 230°
2026-05-04 04:58 40.69844 -74.17693 32 ft 3 kts 219°
2026-05-04 04:59 40.69855 -74.17680 32 ft 0 kts 250°
2026-05-04 04:59 40.69854 -74.17681 32 ft 0 kts 249°
2026-05-04 04:59 40.69849 -74.17693 32 ft 2 kts 233°
2026-05-04 04:59 40.69838 -74.17700 32 ft 1 kts 186°
2026-05-04 05:00 40.69830 -74.17696 32 ft 1 kts 139°
2026-05-04 05:00 40.69828 -74.17686 32 ft 1 kts 91°
2026-05-04 05:00 40.69844 -74.17660 32 ft 0 kts 40°
2026-05-04 05:03 40.69848 -74.17655 32 ft 1 kts 40°
2026-05-04 05:04 40.69884 -74.17609 32 ft 3 kts 60°
2026-05-04 05:04 40.69885 -74.17606 32 ft 0 kts 61°
2026-05-04 05:04 40.69899 -74.17572 32 ft 10 kts 63°
2026-05-04 05:06 40.70333 -74.17172 32 ft 10 kts 95°
2026-05-04 05:06 40.70325 -74.17062 32 ft 13 kts 95°
2026-05-04 05:06 40.70317 -74.16931 32 ft 15 kts 95°
2026-05-04 05:07 40.70309 -74.16808 32 ft 14 kts 95°
2026-05-04 05:07 40.70298 -74.16648 32 ft 17 kts 95°
2026-05-04 05:07 40.70287 -74.16491 32 ft 16 kts 95°
2026-05-04 05:09 40.69297 -74.16829 32 ft 117 kts 205°
2026-05-04 05:09 40.68399 -74.17399 34 ft 168 kts 206°
2026-05-04 05:10 40.67260 -74.18082 422 ft 181 kts 206°
2026-05-04 05:10 40.66129 -74.18734 1125 ft 184 kts 199°
2026-05-04 05:10 40.64855 -74.18959 1510 ft 190 kts 191°
2026-05-04 05:10 40.63480 -74.19152 1598 ft 203 kts 201°
2026-05-04 05:11 40.62226 -74.20063 1660 ft 212 kts 231°
2026-05-04 05:11 40.61460 -74.21689 2044 ft 212 kts 249°
2026-05-04 05:11 40.60868 -74.23521 2283 ft 226 kts 251°
2026-05-04 05:11 40.60276 -74.25468 2691 ft 231 kts 251°
2026-05-04 05:12 40.59704 -74.27430 3185 ft 233 kts 258°
2026-05-04 05:12 40.59593 -74.29549 3525 ft 237 kts 281°
2026-05-04 05:12 40.60169 -74.31573 4009 ft 239 kts 298°
2026-05-04 05:12 40.60960 -74.33281 4482 ft 240 kts 301°
2026-05-04 05:13 40.61852 -74.35124 4971 ft 242 kts 301°
2026-05-04 05:13 40.62765 -74.37009 5460 ft 244 kts 301°
2026-05-04 05:13 40.63674 -74.38887 5879 ft 248 kts 302°
2026-05-04 05:13 40.64608 -74.40820 6373 ft 249 kts 302°
2026-05-04 05:14 40.65440 -74.42806 6859 ft 250 kts 296°
2026-05-04 05:14 40.66198 -74.44872 7313 ft 252 kts 295°
2026-05-04 05:14 40.66951 -74.46939 7781 ft 253 kts 296°
2026-05-04 05:14 40.67707 -74.49006 8266 ft 253 kts 296°
2026-05-04 05:15 40.68473 -74.51098 8733 ft 255 kts 296°
2026-05-04 05:15 40.69246 -74.53207 9167 ft 257 kts 296°
2026-05-04 05:15 40.70028 -74.55346 9616 ft 259 kts 296°
2026-05-04 05:15 40.70714 -74.57545 10017 ft 261 kts 287°
2026-05-04 05:16 40.71205 -74.59878 10206 ft 273 kts 286°
2026-05-04 05:16 40.71701 -74.62351 10270 ft 290 kts 286°
2026-05-04 05:16 40.72236 -74.65009 10310 ft 305 kts 285°
2026-05-04 05:16 40.72798 -74.67790 10367 ft 321 kts 285°
2026-05-04 05:17 40.73380 -74.70667 10459 ft 336 kts 285°
2026-05-04 05:17 40.73989 -74.73682 10716 ft 345 kts 285°
2026-05-04 05:17 40.74610 -74.76762 11222 ft 346 kts 285°
2026-05-04 05:17 40.75222 -74.79806 11717 ft 347 kts 285°
2026-05-04 05:18 40.75838 -74.82867 12172 ft 350 kts 285°
2026-05-04 05:18 40.76464 -74.85983 12530 ft 353 kts 285°
2026-05-04 05:18 40.77096 -74.89136 12958 ft 356 kts 285°
2026-05-04 05:18 40.77728 -74.92295 13417 ft 358 kts 284°
2026-05-04 05:19 40.78361 -74.95461 13932 ft 359 kts 284°
2026-05-04 05:19 40.78993 -74.98627 14381 ft 361 kts 284°
2026-05-04 05:19 40.79638 -75.01865 14818 ft 363 kts 284°
2026-05-04 05:19 40.80376 -75.05035 15199 ft 366 kts 291°
2026-05-04 05:20 40.81503 -75.08046 15607 ft 370 kts 300°
2026-05-04 05:20 40.83017 -75.10785 16045 ft 373 kts 309°
2026-05-04 05:20 40.84897 -75.13184 16449 ft 377 kts 318°
2026-05-04 05:20 40.87059 -75.15118 16799 ft 384 kts 328°
2026-05-04 05:21 40.89542 -75.16579 17143 ft 391 kts 337°
2026-05-04 05:21 40.92134 -75.17700 17548 ft 393 kts 338°
2026-05-04 05:21 40.94724 -75.18804 17919 ft 394 kts 338°
2026-05-04 05:21 40.97320 -75.19925 18271 ft 397 kts 338°
2026-05-04 05:22 40.99958 -75.21075 18602 ft 399 kts 338°
2026-05-04 05:22 41.02605 -75.22236 18987 ft 399 kts 338°
2026-05-04 05:22 41.05235 -75.23395 19336 ft 400 kts 337°
2026-05-04 05:22 41.07863 -75.24558 19671 ft 402 kts 337°
2026-05-04 05:23 41.10520 -75.25736 20005 ft 405 kts 337°
2026-05-04 05:23 41.13206 -75.26930 20342 ft 406 kts 337°
2026-05-04 05:23 41.15879 -75.28120 20659 ft 408 kts 337°
2026-05-04 05:23 41.18585 -75.29327 20984 ft 410 kts 337°
2026-05-04 05:24 41.21273 -75.30526 21325 ft 411 kts 337°
2026-05-04 05:24 41.24014 -75.31751 21645 ft 412 kts 337°
2026-05-04 05:24 41.26711 -75.32958 21947 ft 414 kts 337°
2026-05-04 05:24 41.29436 -75.34178 22228 ft 416 kts 337°
2026-05-04 05:25 41.32191 -75.35413 22523 ft 417 kts 337°
2026-05-04 05:25 41.34932 -75.36643 22797 ft 419 kts 337°
2026-05-04 05:25 41.37717 -75.37894 23086 ft 421 kts 337°
2026-05-04 05:25 41.40481 -75.39137 23334 ft 423 kts 337°
2026-05-04 05:26 41.43287 -75.40399 23609 ft 424 kts 337°
2026-05-04 05:26 41.46069 -75.41653 23881 ft 426 kts 337°
2026-05-04 05:26 41.48864 -75.42912 24109 ft 428 kts 337°
2026-05-04 05:26 41.51720 -75.44201 24364 ft 429 kts 337°
2026-05-04 05:27 41.54515 -75.45463 24623 ft 430 kts 337°
2026-05-04 05:28 41.74658 -75.54595 26166 ft 440 kts 337°
2026-05-04 05:29 41.77570 -75.55920 26360 ft 442 kts 337°
2026-05-04 05:29 41.80528 -75.57268 26599 ft 443 kts 337°
2026-05-04 05:29 41.83427 -75.58589 26830 ft 443 kts 337°
2026-05-04 05:29 41.86341 -75.59919 27034 ft 444 kts 337°
2026-05-04 05:31 42.07093 -75.69427 28489 ft 452 kts 336°
2026-05-04 05:31 42.10082 -75.70802 28653 ft 454 kts 336°
2026-05-04 05:32 42.13106 -75.72195 28880 ft 455 kts 336°
2026-05-04 05:32 42.16096 -75.73573 29050 ft 456 kts 336°
2026-05-04 05:32 42.19131 -75.74973 29244 ft 457 kts 336°
2026-05-04 05:33 42.25150 -75.77755 29612 ft 460 kts 336°
2026-05-04 05:33 42.28200 -75.79166 29809 ft 462 kts 336°
2026-05-04 05:33 42.31221 -75.80566 29979 ft 462 kts 336°
2026-05-04 05:33 42.34272 -75.81980 30207 ft 463 kts 336°
2026-05-04 05:34 42.37271 -75.83373 30476 ft 462 kts 336°
2026-05-04 05:34 42.40328 -75.84792 30792 ft 460 kts 336°
2026-05-04 05:34 42.43316 -75.86182 31096 ft 458 kts 336°
2026-05-04 05:34 42.46335 -75.87586 31375 ft 456 kts 336°
2026-05-04 05:35 42.49342 -75.88989 31551 ft 457 kts 336°
2026-05-04 05:35 42.52338 -75.90387 31658 ft 458 kts 336°
2026-05-04 05:35 42.55329 -75.91785 31796 ft 459 kts 336°
2026-05-04 05:36 42.61388 -75.94619 31883 ft 459 kts 336°
2026-05-04 05:36 42.67394 -75.97433 31872 ft 460 kts 336°
2026-05-04 05:37 42.73432 -76.00269 31862 ft 459 kts 336°
2026-05-04 05:37 42.79457 -76.03105 31827 ft 458 kts 336°
2026-05-04 05:38 42.88494 -76.07370 31848 ft 460 kts 337°
2026-05-04 05:38 42.94556 -76.10238 31887 ft 462 kts 337°
2026-05-04 05:39 43.03618 -76.14535 31889 ft 459 kts 337°
2026-05-04 05:40 43.12649 -76.18833 31891 ft 459 kts 337°
2026-05-04 05:40 43.18639 -76.21725 31890 ft 457 kts 336°
2026-05-04 05:41 43.24615 -76.24743 31887 ft 459 kts 336°
2026-05-04 05:41 43.30603 -76.27770 31883 ft 459 kts 336°
2026-05-04 05:42 43.36552 -76.30778 31880 ft 459 kts 336°
2026-05-04 05:42 43.42568 -76.33826 31878 ft 459 kts 336°
2026-05-04 05:43 43.48524 -76.36848 31878 ft 459 kts 336°
2026-05-04 05:45 43.72464 -76.49056 31819 ft 459 kts 336°
2026-05-04 05:47 43.96396 -76.61363 31811 ft 459 kts 336°
2026-05-04 05:47 44.02377 -76.64455 31836 ft 461 kts 336°
2026-05-04 05:48 44.08397 -76.67575 31848 ft 460 kts 336°
2026-05-04 05:48 44.14358 -76.70670 31865 ft 460 kts 336°
2026-05-04 05:49 44.20331 -76.73779 31863 ft 459 kts 336°
2026-05-04 05:49 44.26298 -76.76891 31838 ft 458 kts 336°
2026-05-04 05:51 44.50198 -76.89423 31779 ft 459 kts 335°
2026-05-04 05:52 44.56185 -76.92580 31755 ft 459 kts 335°
2026-05-04 05:52 44.62133 -76.95723 31731 ft 458 kts 335°
2026-05-04 05:54 44.86000 -77.08405 31715 ft 459 kts 335°
2026-05-04 05:55 44.91938 -77.11578 31712 ft 459 kts 335°
2026-05-04 05:55 44.97891 -77.14765 31737 ft 458 kts 335°
2026-05-04 05:56 45.03876 -77.17977 31704 ft 460 kts 335°
2026-05-04 05:56 45.09821 -77.21175 31713 ft 461 kts 335°
2026-05-04 05:57 45.15828 -77.24412 31706 ft 460 kts 335°
2026-05-04 05:57 45.21781 -77.27629 31706 ft 459 kts 335°
2026-05-04 05:58 45.27737 -77.30854 31705 ft 459 kts 335°
2026-05-04 05:58 45.33638 -77.34057 31692 ft 456 kts 335°
2026-05-04 05:59 45.39574 -77.37286 31692 ft 459 kts 335°
2026-05-04 05:59 45.45509 -77.40522 31689 ft 458 kts 335°
2026-05-04 06:00 45.51446 -77.43765 31686 ft 456 kts 335°
2026-05-04 06:00 45.57415 -77.47035 31706 ft 459 kts 335°
2026-05-04 06:01 45.63338 -77.50246 31690 ft 454 kts 335°
2026-05-04 06:03 45.86940 -77.62985 31678 ft 457 kts 335°
2026-05-04 06:05 46.13443 -77.77438 31661 ft 453 kts 333°
2026-05-04 06:06 46.19332 -77.80669 31679 ft 453 kts 333°
2026-05-04 06:06 46.25201 -77.83898 31672 ft 453 kts 333°
2026-05-04 06:07 46.31094 -77.87148 31693 ft 453 kts 333°
2026-05-04 06:07 46.36925 -77.90369 31672 ft 451 kts 333°
2026-05-04 06:08 46.42796 -77.93622 31667 ft 454 kts 333°
2026-05-04 06:08 46.48665 -77.96880 31672 ft 453 kts 333°
2026-05-04 06:09 46.54555 -78.00158 31648 ft 453 kts 333°
2026-05-04 06:11 46.78073 -78.13320 31631 ft 452 kts 333°
2026-05-04 06:13 47.01604 -78.26616 31591 ft 455 kts 333°
2026-05-04 06:14 47.22296 -78.38411 31616 ft 456 kts 334°
2026-05-04 06:15 47.28182 -78.41785 31633 ft 457 kts 333°
2026-05-04 06:15 47.34096 -78.45182 31614 ft 456 kts 334°
2026-05-04 06:16 47.40009 -78.48589 31638 ft 460 kts 334°
2026-05-04 06:16 47.45914 -78.51996 31553 ft 455 kts 334°
2026-05-04 06:17 47.51821 -78.55414 31664 ft 457 kts 334°
2026-05-04 06:17 47.57750 -78.58854 31645 ft 459 kts 334°
2026-05-04 06:18 47.63652 -78.62286 31529 ft 458 kts 335°
2026-05-04 06:20 47.87437 -78.76202 31646 ft 461 kts 334°
2026-05-04 06:21 48.02253 -78.84940 31656 ft 462 kts 335°
2026-05-04 06:22 48.08249 -78.88492 31659 ft 461 kts 335°
2026-05-04 06:25 48.50594 -79.10640 31603 ft 461 kts 338°
2026-05-04 06:26 48.56607 -79.13689 31577 ft 460 kts 338°
2026-05-04 06:26 48.62697 -79.16788 31582 ft 462 kts 338°
2026-05-04 06:27 48.77860 -79.24539 31588 ft 461 kts 338°
2026-05-04 06:28 48.83912 -79.27647 31593 ft 460 kts 338°
2026-05-04 06:28 48.89950 -79.30755 31562 ft 459 kts 338°
2026-05-04 06:29 48.95982 -79.33869 31567 ft 460 kts 338°
2026-05-04 06:29 49.02053 -79.37011 31564 ft 462 kts 338°
2026-05-04 06:30 49.08104 -79.40150 31576 ft 460 kts 338°
2026-05-04 06:30 49.14146 -79.43293 31539 ft 460 kts 339°
2026-05-04 06:31 49.20226 -79.46464 31561 ft 461 kts 339°
2026-05-04 06:31 49.26261 -79.49619 31552 ft 460 kts 339°
2026-05-04 06:33 49.50475 -79.62362 31555 ft 460 kts 339°
2026-05-04 06:34 49.56547 -79.65579 31574 ft 463 kts 338°
2026-05-04 06:34 49.62579 -79.68782 31567 ft 458 kts 338°
2026-05-04 06:36 49.86813 -79.81739 31553 ft 462 kts 338°
2026-05-04 06:37 49.92822 -79.84973 31510 ft 460 kts 338°
2026-05-04 06:37 49.98871 -79.88238 31524 ft 461 kts 338°
2026-05-04 06:38 50.04959 -79.91532 31539 ft 466 kts 338°
2026-05-04 06:40 50.29031 -80.04644 31506 ft 461 kts 338°
2026-05-04 06:40 50.35084 -80.07964 31542 ft 464 kts 338°
2026-05-04 06:41 50.41144 -80.11295 31536 ft 463 kts 338°
2026-05-04 06:41 50.47208 -80.14638 31523 ft 465 kts 338°
2026-05-04 06:42 50.53282 -80.17996 31517 ft 463 kts 338°
2026-05-04 06:44 50.77635 -80.31552 31499 ft 468 kts 338°
2026-05-04 06:44 50.83798 -80.35008 31545 ft 474 kts 338°
2026-05-04 06:45 50.90036 -80.38514 31524 ft 480 kts 339°
2026-05-04 06:45 50.96361 -80.42079 31529 ft 481 kts 339°
2026-05-04 06:46 51.02608 -80.45610 31504 ft 479 kts 339°
2026-05-04 06:46 51.08875 -80.49163 31493 ft 478 kts 339°
2026-05-04 06:48 51.31130 -80.59978 31541 ft 490 kts 357°
2026-05-04 06:48 51.34541 -80.59695 31533 ft 494 kts
2026-05-04 06:50 51.61656 -80.53275 31519 ft 496 kts
2026-05-04 06:51 51.68456 -80.51688 31512 ft 496 kts
2026-05-04 06:51 51.75273 -80.50098 31492 ft 498 kts
2026-05-04 06:52 51.82119 -80.48498 31518 ft 496 kts
2026-05-04 06:52 51.88902 -80.46909 31488 ft 498 kts
2026-05-04 06:53 51.95749 -80.45303 31516 ft 501 kts
2026-05-04 06:53 52.02620 -80.43684 31511 ft 499 kts
2026-05-04 06:54 52.09520 -80.42055 31537 ft 500 kts
2026-05-04 06:54 52.16407 -80.40424 31519 ft 500 kts
2026-05-04 06:55 52.23218 -80.38806 31558 ft 501 kts
2026-05-04 06:55 52.30143 -80.37156 31521 ft 502 kts
2026-05-04 06:57 52.57699 -80.30537 31565 ft 503 kts
2026-05-04 06:58 52.64620 -80.28861 31544 ft 502 kts
2026-05-04 06:58 52.71521 -80.27185 31547 ft 505 kts
2026-05-04 06:59 52.78405 -80.25508 31544 ft 504 kts
2026-05-04 06:59 52.85339 -80.23813 31530 ft 503 kts
2026-05-04 07:01 53.12946 -80.17010 31561 ft 503 kts
2026-05-04 07:02 53.19867 -80.15291 31539 ft 504 kts
2026-05-04 07:02 53.26753 -80.13574 31568 ft 504 kts
2026-05-04 07:03 53.33691 -80.11840 31582 ft 504 kts
2026-05-04 07:03 53.40603 -80.10106 31578 ft 503 kts
2026-05-04 07:04 53.47465 -80.08379 31559 ft 504 kts
2026-05-04 07:04 53.54375 -80.06634 31570 ft 504 kts
2026-05-04 07:05 53.61331 -80.04871 31552 ft 504 kts
2026-05-04 07:05 53.68213 -80.03122 31580 ft 504 kts
2026-05-04 07:06 53.78539 -80.00486 31565 ft 502 kts
2026-05-04 07:07 53.85443 -79.98717 31579 ft 503 kts
2026-05-04 07:09 54.13046 -79.91582 31585 ft 503 kts
2026-05-04 07:09 54.19982 -79.89774 31602 ft 504 kts
2026-05-04 07:10 54.26865 -79.87974 31606 ft 506 kts
2026-05-04 07:12 54.54537 -79.80675 31604 ft 505 kts
2026-05-04 07:12 54.61460 -79.78834 31587 ft 505 kts
2026-05-04 07:13 54.68368 -79.76989 31603 ft 505 kts
2026-05-04 07:13 54.75304 -79.75131 31597 ft 504 kts
2026-05-04 07:14 54.92619 -79.70465 31612 ft 505 kts
2026-05-04 07:15 54.99501 -79.68599 31617 ft 506 kts
2026-05-04 07:15 55.06478 -79.66701 31609 ft 506 kts
2026-05-04 07:16 55.13413 -79.64807 31621 ft 506 kts
2026-05-04 07:16 55.20354 -79.62905 31611 ft 506 kts
2026-05-04 07:17 55.27263 -79.61005 31604 ft 507 kts
2026-05-04 07:17 55.34177 -79.59097 31639 ft 507 kts
2026-05-04 07:18 55.41134 -79.57171 31620 ft 506 kts
2026-05-04 07:18 55.48087 -79.55238 31617 ft 507 kts
2026-05-04 07:19 55.55029 -79.53302 31620 ft 507 kts
2026-05-04 07:19 55.61949 -79.51365 31620 ft 507 kts
2026-05-04 07:20 55.68904 -79.49411 31625 ft 507 kts
2026-05-04 07:20 55.75812 -79.47464 31615 ft 507 kts
2026-05-04 07:22 56.03596 -79.39559 31639 ft 509 kts
2026-05-04 07:23 56.10572 -79.37556 31624 ft 508 kts
2026-05-04 07:23 56.17515 -79.35556 31621 ft 509 kts
2026-05-04 07:24 56.24519 -79.33530 31630 ft 509 kts
2026-05-04 07:24 56.31470 -79.31512 31650 ft 509 kts
2026-05-04 07:26 56.59350 -79.23777 31653 ft 509 kts
2026-05-04 07:27 56.66361 -79.22514 31632 ft 509 kts
2026-05-04 07:27 56.73409 -79.21210 31651 ft 510 kts
2026-05-04 07:28 56.80423 -79.19888 31644 ft 510 kts
2026-05-04 07:28 56.87474 -79.18544 31619 ft 510 kts
2026-05-04 07:29 56.94497 -79.17194 31627 ft 510 kts
2026-05-04 07:29 57.01560 -79.15829 31654 ft 510 kts
2026-05-04 07:30 57.08590 -79.14463 31649 ft 510 kts
2026-05-04 07:30 57.15627 -79.13089 31658 ft 510 kts
2026-05-04 07:31 57.22635 -79.11716 31674 ft 510 kts
2026-05-04 07:33 57.50802 -79.06139 31667 ft 512 kts
2026-05-04 07:33 57.57890 -79.04723 31651 ft 512 kts
2026-05-04 07:34 57.64934 -79.03309 31673 ft 511 kts
2026-05-04 07:34 57.71950 -79.01895 31650 ft 510 kts
2026-05-04 07:35 57.78979 -79.00474 31677 ft 511 kts
2026-05-04 07:35 57.86015 -78.99045 31663 ft 510 kts
2026-05-04 07:36 57.93064 -78.97607 31655 ft 511 kts
2026-05-04 07:38 58.21217 -78.91811 31655 ft 510 kts
2026-05-04 07:38 58.28283 -78.90342 31660 ft 511 kts
2026-05-04 07:39 58.35360 -78.88864 31663 ft 513 kts
2026-05-04 07:39 58.42416 -78.87386 31652 ft 513 kts
2026-05-04 07:40 58.49474 -78.85899 31669 ft 513 kts
2026-05-04 07:40 58.56560 -78.84402 31655 ft 514 kts
2026-05-04 07:41 58.63618 -78.82905 31667 ft 510 kts
2026-05-04 07:41 58.70674 -78.81400 31652 ft 514 kts
2026-05-04 07:42 58.77678 -78.79903 31673 ft 510 kts
2026-05-04 07:42 58.84734 -78.78387 31690 ft 511 kts
2026-05-04 07:43 58.91743 -78.76875 31682 ft 509 kts
2026-05-04 07:43 58.98748 -78.75359 31675 ft 511 kts
2026-05-04 07:44 59.05759 -78.73834 31667 ft 508 kts
2026-05-04 07:44 59.12789 -78.72299 31678 ft 509 kts
2026-05-04 07:45 59.19764 -78.70770 31675 ft 508 kts
2026-05-04 07:45 59.26761 -78.69229 31669 ft 508 kts
2026-05-04 07:46 59.33772 -78.67680 31688 ft 508 kts
2026-05-04 07:46 59.40757 -78.66129 31692 ft 508 kts
2026-05-04 07:47 59.47773 -78.64565 31689 ft 508 kts
2026-05-04 07:49 59.75699 -78.58275 31698 ft 506 kts
2026-05-04 07:49 59.82677 -78.56686 31698 ft 505 kts
2026-05-04 07:50 59.89653 -78.55092 31690 ft 505 kts
2026-05-04 07:50 59.96605 -78.53497 31720 ft 504 kts
2026-05-04 07:51 60.03527 -78.51901 31713 ft 505 kts
2026-05-04 07:51 60.10479 -78.50291 31727 ft 506 kts
2026-05-04 07:52 60.17442 -78.48673 31751 ft 505 kts
2026-05-04 07:52 60.24417 -78.47044 31689 ft 505 kts
2026-05-04 07:54 60.52122 -78.40506 31730 ft 504 kts
2026-05-04 07:55 60.59047 -78.38854 31720 ft 503 kts
2026-05-04 07:55 60.65968 -78.37197 31713 ft 500 kts 10°
2026-05-04 07:56 60.72846 -78.35541 31684 ft 502 kts
2026-05-04 07:56 60.79774 -78.33868 31698 ft 500 kts 11°
2026-05-04 07:57 60.86674 -78.32192 31717 ft 501 kts 11°
2026-05-04 07:57 60.93572 -78.30512 31737 ft 500 kts 11°
2026-05-04 07:58 61.00393 -78.28842 31690 ft 498 kts 11°
2026-05-04 07:58 61.07264 -78.27151 31713 ft 499 kts 11°
2026-05-04 07:59 61.14127 -78.25457 31722 ft 498 kts 11°
2026-05-04 07:59 61.20993 -78.23753 31758 ft 499 kts 11°
2026-05-04 08:00 61.27850 -78.22047 31750 ft 496 kts 12°
2026-05-04 08:02 61.55202 -78.15156 31764 ft 495 kts 12°
2026-05-04 08:02 61.62008 -78.13423 31723 ft 495 kts 12°
2026-05-04 08:03 61.68864 -78.11668 31781 ft 495 kts 12°
2026-05-04 08:03 61.75667 -78.09920 31752 ft 496 kts 12°
2026-05-04 08:04 61.82491 -78.08160 31783 ft 494 kts 12°
2026-05-04 08:04 61.89224 -78.06415 31735 ft 492 kts 12°
2026-05-04 08:05 61.96014 -78.04645 31800 ft 493 kts 12°
2026-05-04 08:05 62.02810 -78.02868 31766 ft 492 kts 12°
2026-05-04 08:06 62.09536 -78.01100 31780 ft 492 kts 12°
2026-05-04 08:06 62.16330 -77.99307 31771 ft 492 kts 12°
2026-05-04 08:08 62.43467 -77.93322 31769 ft 503 kts 360°
2026-05-04 08:11 62.74506 -78.06062 31778 ft 507 kts 355°
2026-05-04 08:11 62.84849 -78.10413 31797 ft 506 kts 355°
2026-05-04 08:12 62.91728 -78.13322 31775 ft 504 kts 355°
2026-05-04 08:12 62.98581 -78.16229 31806 ft 505 kts 355°
2026-05-04 08:13 63.05448 -78.19157 31788 ft 507 kts 355°
2026-05-04 08:13 63.12359 -78.22116 31788 ft 507 kts 355°
2026-05-04 08:14 63.19212 -78.25068 31789 ft 506 kts 356°
2026-05-04 08:16 63.46773 -78.37074 31802 ft 505 kts 355°
2026-05-04 08:16 63.53645 -78.40105 31829 ft 504 kts 355°
2026-05-04 08:17 63.60514 -78.43149 31837 ft 506 kts 355°
2026-05-04 08:17 63.67394 -78.46213 31828 ft 506 kts 355°
2026-05-04 08:19 63.94897 -78.58614 31833 ft 507 kts 355°
2026-05-04 08:20 64.01767 -78.61751 31832 ft 506 kts 354°
2026-05-04 08:20 64.08691 -78.64928 31837 ft 507 kts 354°
2026-05-04 08:21 64.15553 -78.68092 31828 ft 508 kts 353°
2026-05-04 08:21 64.22469 -78.71299 31839 ft 509 kts 353°
2026-05-04 08:22 64.29342 -78.74502 31844 ft 508 kts 353°
2026-05-04 08:24 64.56904 -78.87508 31865 ft 508 kts 353°
2026-05-04 08:24 64.63824 -78.90816 31877 ft 509 kts 353°
2026-05-04 08:25 64.70705 -78.94123 31883 ft 507 kts 353°
2026-05-04 08:25 64.77583 -78.97445 31874 ft 508 kts 353°
2026-05-04 08:27 65.05137 -79.10928 31910 ft 509 kts 353°
2026-05-04 08:28 65.12012 -79.14337 31921 ft 508 kts 353°
2026-05-04 08:28 65.18896 -79.17769 31918 ft 508 kts 353°
2026-05-04 08:29 65.25813 -79.21236 31924 ft 508 kts 352°
2026-05-04 08:31 65.53297 -79.35194 31961 ft 508 kts 352°
2026-05-04 08:33 65.80866 -79.49500 32001 ft 509 kts 352°